User: anonymous   Login
Location: Starry Hill Observatory
(46.8582°N, 122.3590°W)
Time: 21:13:18
(UTC-08:00)
Language:

Cosmos 1300 Rocket - Orbit

View from above orbital plane
View from above orbital plane
View from above satellite
View from above satellite

Ground track
Ground track

The orbit data is extracted from the following two-line orbital elements,

1 12786U 81082B   14329.06798744  .00000590  00000-0  67420-4 0   490
2 12786 082.4872 128.8740 0019221 101.6078 258.7296 14.84258944796072
Epoch (UTC): 25 November 2014 01:37:54
Eccentricity: 0.0019221
inclination: 82.4872°
perigee height: 602 km
apogee height: 629 km
right ascension of ascending node: 128.8740°
argument of perigee: 101.6078°
revolutions per day: 14.84258944
mean anomaly at epoch: 258.7296°
orbit number at epoch: 79607

The dashed part of the orbit path shows where the satellite is in the earth's shadow,  

DLR